National Weather Service United States Department of Commerce

Severe Potential Through Tonight & Again Tuesday Night

Read More >

Observations from across/near northern Michigan

Marine Observations

Michigan Hourly Observations

 

Yesterday's high, low and precipitation reports from across northern Michigan

Northern Michigan Temperatures and Precipitation

 

Observation Text Products


000
SXUS83 KAPX 210138
OMRAPX

Marine Observations
National Weather Service Gaylord MI
938 PM EDT Mon May 20 2024

WIND DATA (KTS) WAVES WATER
SITE DATE/TIME DIR SPEED GUST (FT) TEMP(F) SITE NAME
-------------------------------------------------------------

Lake Superior/St Marys River

GRMM4 210040Z 130 2 Grand Marais
WFPM4 210040Z 330 4 Whitefish Point
PTIM4 210100Z 160 3 5 Point Iroquois
CYAM 210114Z CALM SOO (Canada)
KANJ 210055Z CALM Sault Ste Marie
LTRM4 210100Z 190 3 45.49 Little Rapids
RCKM4 210100Z CALM 1 50.89 Rock Cut
WNEM4 210100Z 150 2 47.29 West Nebish Island

Lake Huron

DTLM4 210100Z 340 5 6 51.07 DeTour Village
KDRM 210115Z CALM Drummond Island
KMCD 210115Z 130 8 Mackinac Island
MACM4 210100Z 30 5 6 52.51 Mackinac City
KSLH 210115Z CALM Cheboygan Airport
CYGM4 210050Z CALM Cheboygan Marina
SRLM4 210000Z 60 13 Spectacle Reef Light
KPZQ 210115Z CALM Rogers City
PRIM4 210050Z CALM Presque Isle Light
KAPN 210054Z 40 5 Alpena Guard Base
APNM4 210120Z 30 4 5 Alpena Harbor Light
TBIM4 210100Z 60 5 6 Thunder Bay Island
KOSC 210115Z 190 5 Oscoda
TAWM4 210040Z 300 2 Tawas Point
GSLM4 210040Z 140 9 11 Gravelly Shoals

Lake Michigan

KISQ 210115Z 160 3 Manistique
PNLM4 210100Z 100 2 3 56.66 Port Inland
NABM4 210040Z CALM Naubinway
KSJX 210115Z 70 3 St James
KPLN 210054Z CALM Pellston
KMGN 210115Z 50 4 Harbor Springs
KCVX 210115Z 110 4 Charlevoix
NMIM4 210028Z CALM North Manitou Island
GTLM4 210040Z 60 2 Grand Traverse Light
KTVC 210053Z 50 4 Traverse City
KFKS 210115Z CALM Frankfort
MEEM4 210040Z 90 3 6 Manistee Harbor
BSBM4 210040Z 60 3 4 Big Sable Point
LDTM4 210100Z 50 3 5 Ludington
KLDM 210115Z 40 3 Ludington Airport


000
ASUS43 KDTX 210110
RWRMI
MICHIGAN HOURLY REGIONAL WEATHER ROUNDUP
NATIONAL WEATHER SERVICE DETROIT/PONTIAC MI
900 PM EDT MON MAY 20 2024

NOTE: "FAIR" INDICATES FEW OR NO CLOUDS BELOW 12,000 FEET WITH NO
SIGNIFICANT WEATHER AND/OR OBSTRUCTION TO VISIBILITY.

MIZ047>049-052>055-059>063-066>070-074>076-081>083-210200-
SOUTHEAST LOWER MICHIGAN

CITY SKY/WX TMP DP RH WIND PRES REMARKS
ADRIAN PTCLDY 79 60 52 SW5 29.87R TC 26
ALMA LGT RAIN 67 60 78 CALM 29.83R TC 20
ANN ARBOR MOCLDY 72 61 68 S5 29.85S TC 22
BAD AXE CLEAR 67 59 75 S9 29.85S TC 20
CARO PTCLDY 70 65 85 E7 29.83F TC 21
DETROIT CITY LGT RAIN 74 67 78 N5 29.87R TC 23
DETROIT MOCLDY 73 64 73 E6 29.87F TC 23
FLINT MOCLDY 75 64 68 SE10 29.84R TC 24
GROSSE ILE MOCLDY 74 54 49 SE5 29.87S TC 23
HILLSDALE MOCLDY 77 46 33 SW6 29.89R TC 25
HOWELL MOCLDY 75 65 70 SE7 29.85S TC 24

CITY SKY/WX TMP DP RH WIND PRES REMARKS
JACKSON PTCLDY 77 59 53 S8 29.86R TC 25
LAMBERTVILLE MOCLDY 77 64 62 CALM 29.86S TC 25
LANSING LGT RAIN 74 64 71 W23G49 29.87R TC 23
LAPEER PTCLDY 72 61 69 E10 29.86S TC 22
MASON PTCLDY 79 57 45 S3 29.84S TC 26
MONROE MOCLDY 76 60 57 SE3 29.86F TC 25
MT. CLEMENS LGT RAIN 71 66 84 SW9 29.86R TC 22
PONTIAC CLOUDY 73 61 65 SE10G21 29.87R TC 23
PORT HOPE N/A 69 58 67 VRB6 29.83S TC 21
PORT HURON CLEAR 66 63 88 CALM 29.87S TC 19
TRI CITIES MOCLDY 72 64 76 SE5 29.83S TC 22
MIDLAND CLOUDY 74 62 66 W12G17 29.84R TC 23
TROY MOCLDY 69 66 89 S3 29.91F TC 21
SAGINAW HB MOCLDY 72 64 78 SE3 29.81F TC 22
$$
MIZ043>046-050>051-056>058-064>065-071>073-077>080-210200-
SOUTHWEST LOWER MICHIGAN

CITY SKY/WX TMP DP RH WIND PRES REMARKS
BATTLE CREEK RAIN 67 63 87 S14G25 29.89S TC 19
BENTON HARBOR CLOUDY 69 63 81 S9 29.83F TC 21
BIG RAPIDS RAIN 65 62 91 E5 29.81F TC 18
COLDWATER LGT RAIN 69 61 75 W13G26 29.92R TC 21
FREMONT LGT RAIN 66 64 91 W5 29.80F TC 19
HOLLAND CLOUDY 68 63 84 S10 29.80F TC 20
GRAND RAPIDS CLOUDY 66 64 93 S12 29.80F TC 19
IONIA RAIN 69 68 99 S9 29.83S TC 20
KALAMAZOO TSTM 68 32 26 S5 29.87F TC 20
LUDINGTON RAIN 62 60 94 NE3 29.80R TC 17
MARSHALL HVY RAIN 65 61 85 W18G36 29.92R TC 18
MOUNT PLEASANT LGT RAIN 64 61 88 N5 29.82F TC 18
MUSKEGON CLOUDY 70 62 76 S13 29.79S TC 21
SOUTH HAVEN CLOUDY 68 64 89 S8 29.82F TC 20
$$
MIZ016>042-210200-
NORTHERN LOWER MICHIGAN

CITY SKY/WX TMP DP RH WIND PRES REMARKS
ALPENA CLOUDY 66 49 54 NE6 29.85R TC 19
BEAVER ISLAND CLOUDY 59 48 66 CALM 29.86R TC 15
BELLAIRE RAIN 60 58 91 CALM 29.84F TC 16
CADILLAC RAIN 61 61 100 E10 29.83F FOG TC 16
CHARLEVOIX CLOUDY 59 57 92 E5 29.85S TC 15
CHEBOYGAN RAIN 54 52 94 CALM 29.86S TC 12
FRANKFORT CLOUDY 64 60 88 CALM 29.81S TC 18
GAYLORD RAIN 61 56 83 CALM 29.88F TC 16
GRAYLING RAIN 61 60 96 S7 29.88R FOG TC 16
HARBOR SPRINGS LGT RAIN 59 57 92 E6 29.85F TC 15
HOUGHTON LAKE HVY RAIN 62 61 96 N7 29.90R FOG TC 17
MANISTEE LGT RAIN 62 62 100 CALM 29.80S FOG TC 17
OSCODA MOCLDY 70 59 66 S3 29.82F TC 21
PELLSTON LGT RAIN 60 56 86 CALM 29.87R TC 16
ROGERS CITY CLOUDY 56 43 62 CALM 29.87R TC 13
TRAVERSE CITY LGT RAIN 61 59 93 NE5 29.81F TC 16
$$
MIZ007>008-015-210200-
EASTERN UPPER MICHIGAN

CITY SKY/WX TMP DP RH WIND PRES REMARKS
KINROSS CLOUDY 61 37 41 CALM 29.86S TC 16
MACKINAC ISLAN CLOUDY 55 41 58 SE9 29.86R TC 13
NEWBERRY CLOUDY 62 51 69 CALM 29.84F TC 17
S. S. MARIE CLOUDY 62 45 53 CALM 29.84F TC 17
$$
MIZ004>006-011>014-085-210200-
CENTRAL UPPER MICHIGAN

CITY SKY/WX TMP DP RH WIND PRES REMARKS
MANISTIQUE CLOUDY 58 48 69 CALM 29.84S TC 15
ESCANABA MOCLDY 61 52 72 CALM 29.85R TC 16
MENOMINEE CLOUDY 58 51 78 CALM 29.85R TC 14
SAWYER-GWINN CLOUDY 63 52 67 CALM 29.85S TC 17
MUNISING N/A 55 50 83 CALM 29.84F TC 13
$$
MIZ001>003-009>011-084-210200-
WESTERN UPPER MICHIGAN

CITY SKY/WX TMP DP RH WIND PRES REMARKS
IRON MOUNTAIN MOCLDY 62 56 80 CALM 29.83F TC 17
HOUGHTON CLOUDY 62 48 60 W5 29.84F TC 17
COPPER HARBOR N/A 48 42 80 CALM 29.84F TC 9
IRONWOOD CLOUDY 53 52 96 N6 29.88R TC 12
$$

ABBREVIATIONS USED IN REMARKS
TC - TEMPERATURE IN CELSIUS
WCI - WIND CHILL INDEX
HX - HEAT INDEX
VSB - VISIBILITY




000
ASUS63 KAPX 210127
RTPAPX


Eastern Upper/Northern Lower Michigan Temperature and Precip Summary
National Weather Service Gaylord MI
927 PM EDT Mon May 20 2024

18 hour High/Low Temperature ending 8 pm EDT
24 hour Precipitation/Snowfall ending 8 pm EDT
Snow Depth observed at 8 pm EDT

.BR APX 0520 ES DH19/TAIRZS/TAIRZI/PPDRZZ/SFDRZZ/SDIRZZ
:..................................................................
: MAX MIN 24 HR SNOW SNOW
:ID LOCATION TEMP TEMP PRECIP FALL DEPTH
:..................................................................
ANJ : Sault Ste Marie : 65 / 52 / T / 0.0 / 0
APN : Alpena : 74 / 46 / 0.00 / 0.0 / 0
HTL : Houghton Lake : 82 / 46 / T / 0.0 / 0
PLN : Pellston : 79 / 47 / 0.02 / /
TVC : Traverse City : 83 / 53 / 0.30 / /
GLR : Gaylord : 82 / 54 / T / /
.END

Cooperative Observations
Temperature/Precipitation/Snowfall values are for 24 hour period
ending 8 pm EDT. Snow Depth is observed at 8 pm EDT.
...................................................................
OBS MAX MIN SNOW SNOW
ID LOCATION TIME TEMP TEMP PCPN FALL DEPTH
...................................................................
FRKM4: Frankfort 2NE :DH1833/ 76 / 55 / 0.22 / 0.0 / 0.0
MAPM4: Maple City 1E :DH1830/ 75 / 49 / 0.21 / 0.0 / 0.0
PICM4: Pickford 3NE :DH1800/ 70 / 47 / T / 0.0 / 0.0

These data are preliminary and have not undergone final quality
control by the National Centers for Environmental Information.
Therefore...these data are subject to revision. Final
and certified climate data can be accessed at www.ncdc.noaa.gov.

&&

The following are supplemental temperature and precipitation data.
This includes data which are received from non-National Weather
Service maintained observing systems...as well as reports from
public weather spotters. Data is only partially quality controlled
and is not suitable for official climatological records.

.BR APX 0520 ES DH19/TAIRZS/TAIRZI
:
:Automated Temperature Data--18 hr High/Low ending 8 pm EDT
:..................................................................
: MAX MIN
:ID LOCATION TEMP TEMP
:..................................................................
:
ERY : Newberry : 67 / 53
CIU : Kinross : 68 / 52
MCD : Mackinac Island : 63 / 53
DRM : Drummond Island : 73 / 48
SJX : Beaver Island : 67 / 50
SLH : Cheboygan : 66 / 50
PZQ : Rogers City : 73 / 44
MGN : Harbor Springs : 78 / 51
CVX : Charlevoix : 74 / 54
BFA : Boyne Falls : 81 / 48
ACB : Bellaire : 72 / 46
FKS : Frankfort : 77 / 52
MBL : Manistee : 80 / 47
CAD : Cadillac : 79 / 48
Y31 : West Branch : 85 / 49
OSC : Oscoda : 76 / 45
LDM : Ludington : 72 / 49
RQB : Big Rapids : 79 / 52
MOP : Mount Pleasant : 79 / 50
IKW : Midland : 82 / 51
.END

U.S. Forest Service Remote Automated Weather Stations (RAWS)
Data is only partially quality controlled
18 hour High/Low Temperature ending 8 pm EDT
Minimum Relative Humidity over past 18 hours
12/24 hour Precipitation ending 8 pm EDT
...................................................................
MAX MIN MIN 12 HR 24 HR
ID LOCATION TEMP TEMP RH PRECIP PRECIP
...................................................................
AGRM4: Alger RAWS : 84 / 47 / 36 / 0.00 / 0.00
ATAM4: Atlanta RAWS : 84 / 41 / 21 / 0.00 / 0.00
BCYM4: Barton City RAWS : 83 / 46 / 29 / 0.00 / 0.00
GYGM4: Grayling RAWS : 82 / 49 / 24 / 0.00 / 0.00
INDM4: Indian River RAWS : 84 / 46 / 24 / 0.06 / 0.06
MMOM4: Mio RAWS : 84 / 45 / 19 / 0.00 / 0.00
NMIM4: N Manitou Island : 66 / 51 / 48 / 0.00 / 0.00
RACM4: Raco RAWS : 69 / 48 / 38 / 0.00 / 0.00
REXM4: Rexton RAWS : 69 / 46 / 42 / 0.00 / 0.00
RSCM4: Roscommon RAWS : 84 / 42 / 23 / 0.00 / 0.00
RYDM4: Rudyard RAWS : 72 / 48 / 35 / 0.00 / 0.00
SBDM4: The Bear RAWS : 77 / 50 / 35 / 0.55 / 0.55
SCKM4: Silver Creek RAWS : 83 / 43 / 25 / 0.00 / 0.00
WLLM4: Wellston RAWS : 82 / 50 / 44 / 0.41 / 0.41

The following are precipitation reports received by the National
Weather Service in Gaylord...valid for the time period ending
around 8 pm EDT. All reports have been recorded in inches.

Spotter Reports from Eastern Upper and Northern Lower Michigan:

WATER TIME SNOW
LOCATION RAIN SNOW EQUIV PERIOD DEPTH
No Reports Received

$$